This demonstration page uses our WeatherBlox Daily Observations layout. Learn more.

Left ArrowRight Arrow

Hourly Observations for August 1, 2020

Temp ( °F °C ) Dew Point ( °F °C ) Humidity (%) Winds ( mph kmh ) Pressure ( in mb ) Visibility ( mi km ) Precip ( " mm )
12:53 am 00:53 Cloudy 72 22.2 66 18.9 82 82 N N/A 29.86 1011 10 16.0934 N/A
1:53 am 01:53 Cloudy 73 22.8 65 18.3 76 76 N N/A 29.85 1011 10 16.0934 N/A
2:53 am 02:53 Cloudy 72 22.2 65 18.3 79 79 N N/A 29.84 1011 10 16.0934 N/A
3:53 am 03:53 Cloudy 71 21.7 65 18.3 81 81 E 3 6 29.82 1010 10 16.0934 N/A
4:53 am 04:53 Mostly Cloudy 73 22.8 64 17.8 74 74 E 3 6 29.83 1010 10 16.0934 N/A
5:39 am 05:39 Mostly Cloudy 72 22.2 66 18.9 82 82 E 5 7 29.83 1010 10 16.0934 N/A
5:53 am 05:53 Cloudy 71 21.7 66 18.9 84 84 E 5 7 29.83 1010 10 16.0934 N/A
6:35 am 06:35 Cloudy 71 21.7 68 20 90 90 E 3 6 29.83 1010 10 16.0934 N/A
6:53 am 06:53 Cloudy 71 21.7 68 20 90 90 N N/A 29.84 1010 10 16.0934 N/A
7:17 am 07:17 Cloudy 71 21.7 68 20 90 90 N N/A 29.83 1010 10 16.0934 N/A
7:27 am 07:27 Cloudy 71 21.7 68 20 90 90 E 3 6 29.83 1010 10 16.0934 N/A
7:53 am 07:53 Cloudy 72 22.2 68 20 87 87 E 5 7 29.84 1010 10 16.0934 N/A
8:08 am 08:08 Mostly Cloudy 72 22.2 68 20 87 87 E 5 7 29.83 1010 10 16.0934 N/A
8:48 am 08:48 Cloudy 73 23 70 21 89 89 N N/A 29.84 1010 10 16.0934 N/A
8:53 am 08:53 Cloudy 73 22.8 69 20.6 87 87 N N/A 29.84 1011 10 16.0934 N/A
9:53 am 09:53 Cloudy 76 24.4 71 21.7 85 85 N N/A 29.84 1011 10 16.0934 N/A
10:15 am 10:15 Cloudy 77 25 71 21.7 82 82 VRB 3 6 29.83 1010 10 16.0934 N/A
10:53 am 10:53 Mostly Cloudy 79 26.1 72 22.2 79 79 VRB 3 6 29.84 1010 10 16.0934 N/A
11:04 am 11:04 Cloudy 79 26.1 71 21.7 77 77 VRB 3 6 29.82 1010 10 16.0934 N/A
11:12 am 11:12 Cloudy 78 25.6 71 21.7 79 79 VRB 3 6 29.82 1010 10 16.0934 N/A
11:23 am 11:23 Cloudy 79 26.1 71 21.7 77 77 N N/A 29.82 1010 10 16.0934 N/A
11:53 am 11:53 Cloudy 80 26.7 72 22.2 76 76 VRB 3 6 29.83 1010 10 16.0934 N/A
12:53 pm 12:53 Mostly Cloudy 81 27.2 72 22.2 74 74 VRB 5 7 29.82 1010 10 16.0934 N/A
1:53 pm 13:53 Partly Cloudy 83 28.3 72 22.2 70 70 VRB 7 11 29.79 1009 10 16.0934 N/A
2:25 pm 14:25 Mostly Cloudy 84 28.9 74 23.3 72 72 VRB 5 7 29.76 1008 10 16.0934 N/A
2:32 pm 14:32 Mostly Cloudy 85 29.4 74 23.3 70 70 N N/A 29.76 1008 10 16.0934 N/A
2:53 pm 14:53 Mostly Cloudy 82 27.8 73 22.8 74 74 VRB 6 9 29.77 1008 10 16.0934 N/A
3:53 pm 15:53 Mostly Cloudy 84 28.9 75 23.9 74 74 N N/A 29.75 1007 10 16.0934 0.01 0.254
4:53 pm 16:53 Mostly Cloudy 82 27.8 71 21.7 69 69 VRB 7 11 29.74 1007 10 16.0934 N/A
5:40 pm 17:40 Partly Cloudy with Nearby Thunderstorms 82 27.8 74 23.3 77 77 VRB 5 7 29.74 1007 10 16.0934 0.01 0.254
5:53 pm 17:53 Mostly Sunny 82 27.8 73 22.8 74 74 S 7 11 29.75 1007 10 16.0934 0.01 0.254
6:53 pm 18:53 Mostly Cloudy with Light Rain 81 27.2 72 22.2 74 74 VRB 5 7 29.74 1007 10 16.0934 0.001 0.001
7:02 pm 19:02 Mostly Cloudy with Light Rain 77 25 72 22.2 85 85 WSW 8 13 29.74 1007 0.75 1.207005 0.17 4.318
7:12 pm 19:12 Cloudy with Light Rain 74 23.3 72 22.2 94 94 N N/A 29.75 1007 1.5 2.41401 0.19 4.826
7:14 pm 19:14 Cloudy with Light Rain 75 23.9 72 22.2 90 90 N N/A 29.75 1007 4 6.43736 0.19 4.826
7:29 pm 19:29 Cloudy with Light Rain 73 22.8 71 21.7 94 94 undefined N/A 29.76 1008 1.75 2.816345 0.24 6.096
7:32 pm 19:32 Cloudy with Heavy Rain 72 22.2 70 21.1 94 94 W 10 17 29.76 1008 0.75 1.207005 0.29 7.366
7:44 pm 19:44 Cloudy with Nearby Thunderstorms 71 21.7 70 21.1 96 96 W 5 7 29.77 1008 1 1.60934 0.39 9.906
7:49 pm 19:49 Cloudy with Nearby Thunderstorms 72 22 70 21 94 94 W 3 6 29.77 1008 3 4.82802 0.39 9.906
7:53 pm 19:53 Mostly Cloudy with Nearby Thunderstorms 72 22.2 70 21.1 94 94 W 3 6 29.77 1008 10 16.0934 0.39 9.906
8:08 pm 20:08 Mostly Cloudy 72 22.2 71 21.7 97 97 N N/A 29.76 1008 10 16.0934 0.001 0.001
8:43 pm 20:43 Cloudy with Light Rain 73 22.8 71 21.7 94 94 N N/A 29.75 1007 10 16.0934 0.001 0.001
8:53 pm 20:53 Mostly Cloudy with Light Rain 73 22.8 71 21.7 94 94 N N/A 29.76 1008 10 16.0934 0.001 0.001
9:53 pm 21:53 Mostly Cloudy 73 22.8 71 21.7 94 94 VRB 3 6 29.77 1008 10 16.0934 0.001 0.001
10:01 pm 22:01 Mostly Cloudy 73 22.8 71 21.7 94 94 N N/A 29.77 1008 10 16.0934 N/A
10:53 pm 22:53 Cloudy 73 22.8 71 21.7 94 94 N N/A 29.77 1008 8 12.87472 N/A
11:53 pm 23:53 Partly Cloudy 73 22.8 71 21.7 94 94 N N/A 29.75 1008 10 16.0934 0.001 0.001

Powered by AerisWeather